{"data":{"norad_id":67511,"epoch":"2026-05-24T23:09:28.471104Z","epoch_age_seconds":78807,"freshness":"FRESH","line1":"1 67511U 26012U   26144.96491286  .00013640  00000+0  50429-3 0  9999","line2":"2 67511  42.9986 243.9619 0001339 273.8082  86.2616 15.27579191 19422","mean_motion":15.27579191,"eccentricity":0.0001339,"inclination_deg":42.9986,"raan_deg":243.9619,"arg_perigee_deg":273.8082,"mean_anomaly_deg":86.2616,"bstar":0.00050429,"rev_number":1942,"period_min":94.266798636955,"perigee_km":482.13280533513,"apogee_km":483.97023162038,"semimajor_km":6861.1885184778,"source":"CELESTRAK","updated_at":"2026-05-25T13:38:21.599878Z"}}